Snowfall_Accumulation
0.0 0.0 0.0 0.0 0.0 0.0 0.3 0.0 1.8 0.2 0.0 0.0 0.0 0.0 0.0 0.0 0.0 0.0 0.0 0.0 0.0 0.0 0.0 0.0 0.0 0.0 0.0 0.0 0.0 0.0 0.0 0.0 0.0 0.0 0.0 0.0 0.0 0.0 0.0 0.0 0.0 0.0 0.0 0.0
0.0 0.0 0.0 0.0 0.0 0.0 0.0 0.0 0.0 0.0 0.0 0.0 0.0 0.0 0.0 0.0 0.0 0.0 0.0 0.0 0.0 0.0 0.0 0.0 0.0 0.0 0.0 0.0 0.0 0.0 0.0 0.0 0.0 0.0 0.0 0.0 0.0 0.0 0.0 0.0 0.0 0.0 0.0 0.0
0.0 0.0 0.0 0.0 0.0 0.0 0.0 0.0 0.0 0.7 0.0 0.0 0.0 0.0 0.0 0.0 0.0 0.0 0.0 0.0 0.0 0.0 0.0 0.0 0.0 0.0 0.0 0.0 0.0 0.0 0.0 0.0 0.0 0.0 0.0 0.0 0.0 0.0 0.0 0.0 0.0 0.0 0.0 0.0
0.5 0.2 0.3 0.0 0.0 0.0 0.0 0.0 0.0 0.0 0.0 0.0 0.0 0.0 0.0 0.0 0.0 0.0 0.0 0.0 0.0 0.0 0.0 0.0 0.0 0.0 0.0 0.0 0.0 0.0 0.0 0.0 0.0 0.0 0.0 0.0 0.0 0.0 0.0 0.0 0.0 0.0 0.0 0.0
0.3 0.9 0.2 0.0 0.0 0.0 0.0 0.0 0.0 0.0 0.0 0.0 0.0 0.0 0.0 0.0 0.0 0.0 0.0 0.0 0.0 0.0 0.0 0.0 0.0 0.0 0.0 0.0 0.0 0.0 0.0 0.0 0.0 0.0 0.0 0.0 0.0 0.0 0.0 0.0 0.0 0.0 0.0 0.0
0.5 0.1 0.2 0.0 0.0 0.0 0.0 0.0 0.0 0.0 0.0 0.0 0.0 0.0 0.9 0.0 1.3 0.0 0.0 0.0 0.0 0.0 0.0 0.0 0.0 0.0 0.0 0.0 0.0 0.0 0.0 0.0 0.0 0.0 0.0 0.0 0.0 0.0 0.0 0.0 0.0 0.0 0.0 0.0
0.2 0.5 0.0 0.0 0.0 0.0 0.0 0.9 0.0 0.0 0.0 0.0 0.0 0.0 2.2 2.1 2.6 3.0 1.2 0.2 0.0 0.0 0.0 0.0 0.0 0.0 0.0 0.0 0.0 0.0 0.0 0.0 0.0 0.0 0.0 0.0 0.0 0.0 0.0 0.0 0.0 0.0 0.0 0.0
0.4 0.7 0.2 0.0 0.0 0.0 0.0 0.0 0.0 0.0 0.0 0.0 0.0 0.6 2.9 2.0 2.4 1.9 1.1 0.0 0.0 0.0 0.0 0.0 0.0 0.0 0.0 0.0 0.0 0.0 0.0 0.0 0.0 0.0 0.0 0.0 0.0 0.0 0.0 0.0 0.0 0.0 0.0 0.0
0.0 0.0 0.0 0.0 0.0 0.0 0.0 0.0 0.0 0.0 0.0 1.8 1.2 3.4 3.6 3.3 2.9 3.0 0.8 0.0 0.0 0.0 0.0 0.0 0.0 0.0 0.0 0.0 0.0 0.0 0.0 0.0 0.0 0.0 0.0 0.0 0.0 0.0 0.0 0.0 0.0 0.0 0.0 0.0
1.9 1.3 0.1 0.0 0.0 0.0 0.2 0.2 0.2 0.0 3.6 7.6 8.1 8.0 7.3 6.3 3.8 2.0 0.5 0.0 0.0 0.0 0.0 0.0 0.0 0.0 0.0 0.0 0.0 0.0 0.0 0.0 0.0 0.0 0.0 0.0 0.0 0.0 0.0 0.0 0.0 0.0 0.0 0.0
3.0 2.1 0.4 0.3 0.3 0.4 0.6 0.8 1.1 0.8 0.6 1.8 2.6 2.6 1.3 0.9 0.9 0.5 0.2 0.0 0.0 0.0 0.0 0.0 0.0 0.0 0.0 0.0 0.0 0.0 0.0 0.0 0.0 0.0 0.0 0.0 0.1 0.1 0.2 0.5 0.4 0.1 0.4 0.1
4.7 2.9 6.2 3.8 2.3 1.2 1.0 2.5 1.6 0.6 0.4 0.4 0.7 0.9 0.8 0.6 0.4 0.1 0.0 0.0 0.0 0.0 0.0 0.7 0.0 0.1 0.0 0.0 0.0 0.0 0.0 0.6 0.2 0.8 0.3 0.4 0.5 0.9 1.4 1.0 1.2 1.0 1.1 4.4
7.4 6.2 7.7 6.7 2.7 1.4 1.1 1.8 1.9 1.4 1.0 0.6 0.3 0.0 0.2 0.3 0.2 0.1 0.1 0.0 0.1 0.2 0.1 2.6 0.2 3.6 3.5 3.2 1.3 2.6 1.6 1.5 1.4 1.2 1.4 2.1 2.2 1.0 1.3 2.7 4.6 5.9 8.9 9.3
1.8 3.0 1.8 1.3 1.0 0.5 0.1 0.0 0.0 0.0 0.0 0.0 0.1 0.0 0.0 0.0 0.0 0.0 0.3 0.4 0.2 2.0 3.4 4.4 3.6 5.0 6.4 6.7 6.2 6.4 8.9 7.2 4.2 5.6 8.5 9.6 10.8 11.6 11.8 12.4 12.2 12.9 13.1 11.9
0.5 0.3 0.2 0.0 0.0 0.0 0.0 0.0 0.0 0.0 0.0 0.0 0.0 0.0 0.2 0.0 0.1 0.5 0.4 1.0 1.2 1.4 2.1 2.8 3.5 5.4 6.7 8.1 9.7 11.3 12.7 14.0 14.3 14.2 13.8 12.4 10.9 10.0 9.6 9.4 9.2 9.5 9.3 8.4
0.0 0.0 0.0 0.0 0.0 0.0 0.0 0.0 0.0 0.0 0.0 0.0 0.0 0.4 0.3 0.2 0.4 0.7 0.9 0.9 0.4 1.2 1.6 1.3 1.7 3.7 3.5 3.6 4.1 4.8 5.7 6.0 5.7 5.6 5.1 4.6 4.3 4.0 4.2 3.9 3.6 3.4 3.2 3.2
0.1 0.1 0.0 0.1 0.0 0.0 0.1 0.1 0.1 0.1 0.2 0.3 0.8 0.7 0.5 0.4 0.4 0.9 1.5 2.0 2.1 2.4 2.5 2.3 3.2 3.0 2.7 2.5 2.2 2.4 2.4 2.5 2.3 2.1 2.2 2.0 1.8 1.6 1.5 1.2 1.0 0.8 1.1 0.0
0.0 0.2 0.0 0.2 0.3 0.0 0.3 0.4 0.4 0.5 0.7 0.9 0.8 0.8 0.8 0.9 1.5 2.1 2.6 2.2 1.4 1.1 1.2 1.5 1.3 1.0 0.9 1.0 0.4 0.5 0.4 0.4 0.2 0.1 0.1 0.0 0.2 0.2 0.3 0.1 0.0 0.0 0.0 0.0
0.0 0.2 0.3 0.4 0.3 0.4 0.5 0.7 0.9 1.0 1.1 1.1 1.0 1.2 1.1 1.1 1.2 1.2 1.2 0.8 0.6 0.4 0.7 0.3 0.1 0.0 0.0 0.0 0.0 0.0 0.0 0.0 0.0 0.0 0.0 0.0 0.0 0.0 0.0 0.0 0.0 0.0 0.0 0.0
0.3 0.4 0.4 0.5 0.6 0.6 0.7 1.0 0.9 0.8 1.1 1.1 0.9 0.9 0.8 1.0 0.9 0.8 0.6 0.4 0.3 0.4 0.2 0.0 0.0 0.0 0.0 0.0 0.0 0.0 0.0 0.0 0.0 0.0 0.0 0.0 0.0 0.0 0.0 0.0 0.0 0.0 0.0 0.0
0.6 0.5 0.4 0.4 0.7 0.7 0.6 0.9 0.8 0.7 0.9 0.8 0.7 0.7 0.7 0.5 0.3 0.3 0.2 0.0 0.0 0.0 0.0 0.0 0.0 0.0 0.0 0.0 0.0 0.0 0.0 0.0 0.0 0.0 0.0 0.0 0.0 0.0 0.0 0.0 0.0 0.0 0.0 0.0
0.4 0.3 0.7 0.7 0.5 0.7 0.9 1.0 0.8 0.7 0.8 0.7 0.6 0.6 0.3 0.3 0.2 0.0 0.0 0.0 0.0 0.0 0.0 0.0 0.0 0.0 0.0 0.0 0.0 0.0 0.0 0.0 0.0 0.0 0.0 0.0 0.0 0.0 0.0 0.0 0.0 0.0 0.0 0.0
0.9 0.8 0.9 0.9 0.8 0.8 0.7 0.5 0.5 0.4 0.2 0.0 0.0 0.0 0.0 0.0 0.0 0.0 0.0 0.0 0.0 0.0 0.0 0.0 0.0 0.0 0.0 0.0 0.0 0.0 0.0 0.0 0.0 0.0 0.0 0.0 0.0 0.0 0.0 0.0 0.0 0.0 0.0 0.0
0.8 0.8 0.7 0.6 0.4 0.2 0.1 0.0 0.0 0.0 0.0 0.0 0.0 0.0 0.0 0.0 0.0 0.0 0.0 0.0 0.0 0.0 0.0 0.0 0.0 0.0 0.0 0.0 0.0 0.0 0.0 0.0 0.0 0.0 0.0 0.0 0.0 0.0 0.0 0.0 0.0 0.0 0.0 0.0
0.7 0.6 0.3 0.0 0.0 0.0 0.0 0.0 0.0 0.0 0.0 0.0 0.0 0.0 0.0 0.0 0.0 0.0 0.0 0.0 0.0 0.0 0.0 0.0 0.0 0.0 0.0 0.0 0.0 0.0 0.0 0.0 0.0 0.0 0.0 0.0 0.0 0.0 0.0 0.0 0.0 0.0 0.0 0.0
0.1 0.1 0.0 0.0 0.0 0.0 0.0 0.0 0.0 0.1 0.0 0.0 0.0 0.1 0.1 0.0 0.0 0.0 0.0 0.0 0.0 0.0 0.0 0.0 0.0 0.0 0.0 0.0 0.0 0.0 0.0 0.0 0.0 0.0 0.0 0.0 0.0 0.0 0.0 0.0 0.0 0.0 0.0 0.0
0.0 0.0 0.0 0.0 0.0 0.0 0.0 0.1 0.2 0.1 0.1 0.0 0.0 0.0 0.0 0.1 0.0 0.0 0.0 0.0 0.0 0.0 0.0 0.0 0.0 0.0 0.0 0.0 0.0 0.0 0.0 0.0 0.0 0.0 0.0 0.0 0.0 0.0 0.0 0.0 0.0 0.0 0.0 0.0